Notices

What's New in latest Release from April 7th, 2021:

- Updated Glossary, including Speed of Maximum Gust, and Total Hourly Precipitation

- Updated national and regional climate services offices contacts and prices information

- Addition of station inventory lists for 1981-2010, 1971-2000, and 1961-1990 Normals.

If you haven't already, please take our survey and provide feedback about our website: https://eccc.sondage-survey.ca/f/LanguageSelection.aspx?s=442ca660-fcf1-47c0-95a9-59707d6fd709

Hourly Data Report for September 08, 2019

QUALICUM BEACH AIRPORT
BRITISH COLUMBIA
Current Station Operator: ECCC - MSC

49°20'14.000" N
124°23'38.000" W
58.20 m
1026562
71766
VOQ

Download Data

Hourly Data (September 2019)
Hourly Data Report for September 8, 2019
TIME
LST
Temp Definition
°C
Dew Point Definition
°C
Rel Hum Definition
%
Precip. Amount Definition
mm

Wind Dir Definition
10's deg

Wind Spd Definition
km/h
Visibility Definition
km
Stn Press Definition
kPa
Hmdx Definition


Wind Chill Definition


Weather Definition


00:00 15.9 13.6 86 0.0 29 3   100.59     LegendNANA
01:00 16.1 13.6 85 0.0 28 6   100.56     LegendNANA
02:00 16.8 14.2 84 0.0 28 5   100.52     LegendNANA
03:00 16.6 14.2 86 0.0 27 5   100.48     LegendNANA
04:00 16.3 14.1 87 0.0 22 3   100.48     LegendNANA
05:00 16.0 13.3 84 0.0 16 3   100.47     LegendNANA
06:00 14.9 12.9 88 0.0 19 2   100.48     LegendNANA
07:00 14.8 13.1 89 0.0   0   100.48     LegendNANA
08:00 17.7 13.5 76 0.0 15 3   100.46     LegendNANA
09:00 18.6 13.2 71 0.0 9 5   100.44     LegendNANA
10:00 18.6 13.2 71 0.0 10 8   100.42     LegendNANA
11:00 19.0 13.6 71 0.0 9 12   100.39     LegendNANA
12:00 19.2 14.0 72 0.0 10 12   100.37     LegendNANA
13:00 18.0 13.4 75 0.0 10 17   100.35     LegendNANA
14:00 18.6 13.1 70 0.0 10 11   100.33     LegendNANA
15:00 17.8 13.0 73 0.0 10 5   100.33     LegendNANA
16:00 16.6 15.2 91 2.8 23 1   100.30     LegendNANA
17:00 16.7 15.4 92 0.3 11 6   100.27     LegendNANA
18:00 16.4 15.2 92 0.0 25 1   100.28     LegendNANA
19:00 16.0 15.1 94 0.0 28 3   100.29     LegendNANA
20:00 15.8 15.1 96 0.0 22 2   100.33     LegendNANA
21:00 15.2 14.6 96 0.0 28 2   100.32     LegendNANA
22:00 14.8 14.2 97 0.0 29 2   100.31     LegendNANA
23:00 14.3 13.7 97 0.0   0   100.30     LegendNANA

Notes on Data Quality.

Legend

  • E = Estimated
  • M = Missing
  • NA = Not Available*
  • [empty] = Indicates an unobserved value
Date modified: